Weather History for Mountain Home, ID

Change the Weather History Date:

Friday, October 14, 2011

  Actual Average Record
Temperature  
Mean Temperature 58 °F 52 °F  
Max Temperature 72 °F 67 °F 87 °F (2005)
Min Temperature 43 °F 36 °F 16 °F (1966)
Degree Days  
Heating Degree Days 7 13  
Month to date heating degree days 142 143  
Cooling Degree Days 0 0  
Month to date cooling degree days 13 2  
Growing Degree Days 8 (Base 50)    
Moisture  
Dew Point 45 °F    
Average Humidity 73    
Maximum Humidity 100    
Minimum Humidity 35    
Precipitation  
Precipitation 0.00 in 0.02 in 0.36 in (2007)
Month to date precipitation 1.82 0.28  
Sea Level Pressure  
Sea Level Pressure 29.97 in    
Wind  
Wind Speed 3 mph (ESE)    
Max Wind Speed 7 mph    
Max Gust Speed -    
Visibility 9 miles    
Events      
T = Trace of Precipitation, MM = Missing Value Source: NWS Daily Summary

Daily Weather History Graph

Daily Weather History Graph

Search for Another Location

Airport:

Trip Planner

Search our weather history database for the weather conditions in past years. The results will help you decide how hot, cold, wet, or windy it might be!

Date:

Astronomy

Oct. 14, 2011 Rise Set
Actual Time 7:55 AM MDT 7:02 PM MDT
Civil Twilight 7:27 AM MDT 7:31 PM MDT
Nautical Twilight 6:54 AM MDT 8:04 PM MDT
Astronomical Twilight 6:21 AM MDT 8:36 PM MDT
Moon 8:13 PM MDT (10/14) 10:33 AM MDT (10/14)
Length of Visible Light 12h 04m
Length of Day
11h 07m
Waning Gibbous, 94% of the Moon is Illuminated
Oct 14
Waning Gibbous
Oct 19
Last Quarter
Oct 26
New
Nov 2
First Quarter
Nov 10
Full

Hourly Weather History & Observations

Time (MDT) Temp. Windchill Dew Point Humidity Pressure Visibility Wind Dir Wind Speed Gust Speed Precip Events Conditions
12:55 AM 48.0 °F - 45.0 °F 89% 29.98 in 10.0 mi Variable 4.6 mph - N/A   Partly Cloudy
1:55 AM 45.7 °F 44.4 °F 45.5 °F 99% 29.98 in 10.0 mi SE 3.5 mph - N/A   Overcast
2:55 AM 46.6 °F - 45.7 °F 97% 29.98 in 10.0 mi Calm Calm - N/A   Mostly Cloudy
3:55 AM 46.9 °F - 46.0 °F 97% 29.98 in 10.0 mi Calm Calm - N/A   Mostly Cloudy
4:55 AM 44.8 °F 43.3 °F 43.7 °F 96% 29.98 in 10.0 mi East 3.5 mph - N/A   Mostly Cloudy
5:55 AM 44.1 °F - 44.1 °F 100% 30.00 in 10.0 mi Calm Calm - N/A   Mostly Cloudy
6:55 AM 43.7 °F 41.1 °F 43.7 °F 100% 30.01 in 10.0 mi East 4.6 mph - N/A   Mostly Cloudy
7:55 AM 43.2 °F 41.5 °F 43.2 °F 100% 30.02 in 10.0 mi ENE 3.5 mph - N/A   Mostly Cloudy
8:55 AM 45.7 °F 44.4 °F 45.7 °F 100% 30.05 in 10.0 mi Variable 3.5 mph - N/A   Mostly Cloudy
9:55 AM 51.6 °F - 46.0 °F 81% 30.06 in 10.0 mi East 3.5 mph - N/A   Mostly Cloudy
10:55 AM 57.6 °F - 45.9 °F 65% 30.06 in 10.0 mi Variable 3.5 mph - N/A   Partly Cloudy
11:55 AM 59.5 °F - 43.7 °F 56% 30.04 in 10.0 mi Variable 3.5 mph - N/A   Clear
12:55 PM 63.0 °F - 43.9 °F 50% 30.02 in 10.0 mi Calm Calm - N/A   Clear
1:55 PM 65.3 °F - 40.5 °F 40% 29.99 in 10.0 mi East 3.5 mph - N/A   Clear
2:55 PM 69.3 °F - 40.8 °F 36% 29.95 in 10.0 mi SE 3.5 mph - N/A   Clear
3:55 PM 71.2 °F - 42.1 °F 35% 29.94 in 10.0 mi Calm Calm - N/A   Clear
4:55 PM 72.0 °F - 44.4 °F 37% 29.92 in 9.0 mi West 4.6 mph - N/A   Clear
5:55 PM 71.1 °F - 44.2 °F 38% 29.90 in 7.0 mi West 3.5 mph - N/A   Clear
6:55 PM 64.9 °F - 48.2 °F 55% 29.90 in 6.0 mi WSW 5.8 mph - N/A   Haze
7:55 PM 59.4 °F - 45.7 °F 61% 29.91 in 10.0 mi West 6.9 mph - N/A   Clear
8:55 PM 56.3 °F - 46.9 °F 71% 29.92 in 6.0 mi Calm Calm - N/A   Haze
8:56 PM 57.2 °F - 44.6 °F 63% 29.92 in 4.0 mi Calm Calm - N/A   Haze
9:55 PM 55.2 °F - 46.4 °F 72% 29.92 in 4.0 mi Calm Calm - N/A   Haze
9:56 PM 53.6 °F - 48.2 °F 82% 29.92 in 4.0 mi ESE 5.8 mph - N/A   Haze
10:31 PM 51.8 °F - 46.4 °F 82% 29.91 in 9.0 mi East 4.6 mph - N/A   Clear
10:55 PM 51.6 °F - 46.9 °F 84% 29.91 in 10.0 mi ENE 5.8 mph - N/A   Clear
11:55 PM 50.5 °F - 48.2 °F 92% 29.90 in 10.0 mi East 5.8 mph - N/A   Clear